QPF
0.02 0.01 0.01 0.01 0.01 0.01 0.01 0.01 0.02 0.02 0.02 0.02 0.02 0.02 0.02 0.02 0.02 0.03 0.05 0.08 0.08 0.07 0.08 0.07 0.07 0.09 0.11 0.10 0.10 0.11 0.08 0.07 0.06 0.05 0.05 0.04 0.03 0.02 0.02 0.02 0.03 0.05 0.09
0.02 0.01 0.01 0.01 0.01 0.01 0.02 0.02 0.02 0.02 0.01 0.01 0.01 0.02 0.02 0.03 0.03 0.03 0.03 0.05 0.06 0.07 0.06 0.06 0.07 0.08 0.08 0.07 0.08 0.12 0.10 0.09 0.07 0.05 0.04 0.04 0.03 0.03 0.02 0.02 0.03 0.05 0.07
0.02 0.02 0.01 0.01 0.01 0.02 0.02 0.02 0.01 0.02 0.02 0.01 0.02 0.02 0.02 0.02 0.02 0.03 0.04 0.04 0.04 0.06 0.06 0.06 0.06 0.08 0.08 0.06 0.06 0.07 0.08 0.08 0.06 0.05 0.04 0.03 0.03 0.02 0.02 0.03 0.03 0.03 0.04
0.02 0.02 0.02 0.02 0.02 0.02 0.02 0.02 0.02 0.01 0.01 0.01 0.02 0.02 0.02 0.02 0.01 0.01 0.03 0.03 0.02 0.02 0.03 0.05 0.05 0.08 0.11 0.08 0.07 0.06 0.06 0.06 0.05 0.03 0.03 0.03 0.04 0.03 0.02 0.02 0.02 0.02 0.02
0.02 0.02 0.02 0.02 0.03 0.04 0.03 0.02 0.01 0.01 0.01 0.01 0.02 0.02 0.03 0.02 0.01 0.02 0.02 0.02 0.02 0.02 0.02 0.02 0.03 0.06 0.12 0.09 0.08 0.07 0.06 0.06 0.04 0.02 0.02 0.03 0.04 0.03 0.02 0.02 0.02 0.02 0.02
0.02 0.02 0.02 0.02 0.03 0.03 0.02 0.01 0.01 0.01 0.01 0.01 0.01 0.01 0.03 0.03 0.02 0.03 0.02 0.02 0.02 0.02 0.02 0.03 0.02 0.04 0.09 0.09 0.07 0.07 0.06 0.05 0.03 0.02 0.02 0.01 0.02 0.02 0.02 0.02 0.02 0.03 0.03
0.02 0.02 0.02 0.02 0.02 0.02 0.02 0.02 0.01 0.00 0.01 0.01 0.01 0.01 0.02 0.02 0.02 0.02 0.01 0.01 0.01 0.02 0.02 0.02 0.02 0.03 0.06 0.09 0.06 0.06 0.06 0.05 0.04 0.04 0.03 0.02 0.02 0.03 0.03 0.03 0.03 0.05 0.03
0.02 0.02 0.03 0.03 0.03 0.03 0.03 0.03 0.01 0.01 0.01 0.00 0.01 0.01 0.01 0.01 0.01 0.01 0.01 0.01 0.01 0.02 0.02 0.02 0.03 0.04 0.05 0.07 0.05 0.04 0.05 0.05 0.05 0.04 0.04 0.04 0.04 0.04 0.03 0.04 0.05 0.04 0.03
0.01 0.02 0.03 0.04 0.05 0.06 0.04 0.03 0.02 0.02 0.02 0.01 0.01 0.01 0.01 0.01 0.02 0.02 0.02 0.01 0.01 0.02 0.02 0.01 0.02 0.03 0.04 0.03 0.02 0.03 0.02 0.03 0.05 0.05 0.05 0.04 0.04 0.04 0.05 0.05 0.06 0.04 0.04
0.01 0.02 0.02 0.03 0.04 0.05 0.04 0.02 0.02 0.02 0.02 0.02 0.01 0.01 0.01 0.01 0.02 0.02 0.02 0.02 0.02 0.02 0.02 0.01 0.01 0.02 0.03 0.02 0.02 0.03 0.01 0.02 0.04 0.05 0.06 0.06 0.05 0.03 0.05 0.06 0.06 0.05 0.05
0.02 0.03 0.05 0.05 0.05 0.04 0.04 0.03 0.02 0.02 0.02 0.01 0.01 0.01 0.01 0.01 0.01 0.01 0.01 0.01 0.01 0.02 0.02 0.02 0.02 0.02 0.03 0.02 0.02 0.02 0.02 0.02 0.03 0.04 0.05 0.07 0.07 0.06 0.06 0.06 0.06 0.06 0.06
0.02 0.05 0.07 0.07 0.08 0.06 0.04 0.04 0.03 0.02 0.02 0.01 0.01 0.01 0.01 0.01 0.01 0.01 0.01 0.00 0.01 0.01 0.02 0.02 0.02 0.04 0.03 0.02 0.02 0.03 0.02 0.02 0.02 0.02 0.03 0.04 0.07 0.09 0.07 0.07 0.08 0.06 0.07
0.02 0.05 0.08 0.09 0.11 0.08 0.05 0.03 0.02 0.03 0.03 0.02 0.02 0.02 0.01 0.01 0.01 0.01 0.01 0.01 0.00 0.00 0.00 0.01 0.03 0.04 0.03 0.02 0.03 0.06 0.04 0.03 0.02 0.02 0.01 0.02 0.05 0.07 0.09 0.08 0.08 0.07 0.08
0.01 0.06 0.07 0.10 0.11 0.07 0.05 0.02 0.02 0.02 0.03 0.03 0.04 0.04 0.02 0.01 0.01 0.02 0.02 0.01 0.01 0.01 0.00 0.02 0.04 0.03 0.03 0.03 0.07 0.09 0.04 0.03 0.03 0.04 0.03 0.02 0.02 0.03 0.06 0.07 0.06 0.06 0.08
0.01 0.03 0.05 0.06 0.07 0.07 0.04 0.03 0.03 0.02 0.03 0.03 0.03 0.03 0.02 0.01 0.01 0.01 0.01 0.02 0.02 0.01 0.02 0.03 0.04 0.05 0.05 0.07 0.13 0.11 0.03 0.03 0.04 0.04 0.05 0.03 0.02 0.02 0.03 0.04 0.04 0.05 0.05
0.01 0.02 0.03 0.04 0.06 0.06 0.04 0.03 0.03 0.02 0.02 0.01 0.01 0.02 0.02 0.02 0.01 0.01 0.01 0.01 0.02 0.01 0.02 0.04 0.04 0.07 0.08 0.11 0.11 0.08 0.04 0.03 0.03 0.03 0.04 0.04 0.03 0.03 0.03 0.03 0.04 0.05 0.04
0.01 0.01 0.02 0.03 0.06 0.04 0.03 0.03 0.04 0.03 0.02 0.01 0.01 0.01 0.02 0.02 0.02 0.02 0.02 0.02 0.03 0.02 0.03 0.04 0.04 0.06 0.08 0.08 0.06 0.05 0.03 0.03 0.03 0.04 0.04 0.06 0.05 0.04 0.04 0.04 0.03 0.04 0.04
0.00 0.01 0.02 0.04 0.05 0.04 0.03 0.02 0.04 0.04 0.03 0.02 0.02 0.02 0.02 0.02 0.02 0.02 0.03 0.03 0.03 0.03 0.03 0.03 0.04 0.05 0.08 0.07 0.05 0.05 0.05 0.04 0.04 0.05 0.06 0.05 0.05 0.04 0.04 0.06 0.05 0.04 0.04
0.00 0.00 0.01 0.04 0.05 0.03 0.02 0.02 0.02 0.02 0.02 0.01 0.01 0.02 0.02 0.02 0.02 0.03 0.03 0.04 0.04 0.03 0.03 0.03 0.04 0.05 0.05 0.05 0.05 0.05 0.06 0.06 0.05 0.05 0.06 0.06 0.07 0.06 0.05 0.06 0.06 0.05 0.05
0.00 0.01 0.01 0.04 0.04 0.03 0.02 0.02 0.02 0.01 0.01 0.01 0.01 0.02 0.02 0.02 0.02 0.02 0.02 0.03 0.04 0.04 0.04 0.04 0.05 0.05 0.04 0.04 0.05 0.05 0.05 0.05 0.05 0.05 0.07 0.07 0.08 0.07 0.05 0.05 0.06 0.05 0.05
0.00 0.01 0.01 0.03 0.03 0.02 0.02 0.02 0.02 0.02 0.01 0.01 0.01 0.01 0.02 0.02 0.03 0.03 0.03 0.03 0.03 0.04 0.04 0.04 0.05 0.05 0.04 0.04 0.05 0.07 0.04 0.04 0.05 0.06 0.06 0.06 0.05 0.04 0.04 0.04 0.05 0.05 0.06
0.00 0.00 0.01 0.02 0.02 0.02 0.01 0.02 0.02 0.02 0.02 0.02 0.01 0.01 0.02 0.02 0.02 0.02 0.03 0.04 0.03 0.04 0.04 0.04 0.04 0.05 0.05 0.05 0.07 0.07 0.04 0.03 0.05 0.06 0.06 0.04 0.03 0.03 0.03 0.02 0.04 0.05 0.06
0.00 0.00 0.01 0.02 0.01 0.02 0.01 0.01 0.01 0.02 0.02 0.01 0.01 0.01 0.01 0.01 0.02 0.02 0.03 0.03 0.04 0.04 0.05 0.05 0.04 0.04 0.03 0.04 0.05 0.05 0.05 0.04 0.05 0.05 0.05 0.04 0.03 0.03 0.03 0.04 0.05 0.04 0.04
0.00 0.00 0.01 0.02 0.01 0.02 0.02 0.01 0.01 0.01 0.01 0.01 0.01 0.01 0.01 0.01 0.02 0.02 0.02 0.02 0.02 0.02 0.03 0.04 0.04 0.03 0.03 0.03 0.03 0.04 0.04 0.04 0.03 0.03 0.05 0.06 0.04 0.03 0.03 0.04 0.05 0.06 0.04
0.00 0.00 0.01 0.02 0.02 0.02 0.02 0.01 0.01 0.01 0.01 0.01 0.02 0.02 0.01 0.01 0.01 0.02 0.02 0.01 0.01 0.01 0.01 0.02 0.03 0.03 0.03 0.02 0.02 0.02 0.02 0.02 0.02 0.02 0.02 0.04 0.05 0.04 0.03 0.03 0.04 0.06 0.06
0.01 0.01 0.01 0.02 0.02 0.03 0.03 0.01 0.01 0.01 0.01 0.01 0.01 0.02 0.02 0.02 0.02 0.02 0.02 0.01 0.01 0.01 0.01 0.02 0.03 0.03 0.02 0.01 0.01 0.01 0.01 0.01 0.01 0.01 0.01 0.02 0.03 0.04 0.04 0.04 0.04 0.03 0.04
MSLP
1016.31 1016.48 1016.55 1016.56 1016.55 1016.54 1016.57 1016.65 1016.79 1016.95 1017.12 1017.28 1017.40 1017.50 1017.56 1017.61 1017.66 1017.72 1017.82 1017.93 1018.06 1018.19 1018.30 1018.38 1018.43 1018.45 1018.44 1018.41 1018.36 1018.32 1018.27 1018.24 1018.23 1018.24 1018.27 1018.33 1018.39 1018.47 1018.54 1018.60 1018.64 1018.68 1018.70
1016.31 1016.48 1016.59 1016.64 1016.67 1016.72 1016.80 1016.93 1017.11 1017.32 1017.53 1017.73 1017.88 1017.99 1018.06 1018.09 1018.12 1018.14 1018.19 1018.27 1018.37 1018.48 1018.58 1018.67 1018.73 1018.76 1018.73 1018.68 1018.59 1018.49 1018.39 1018.30 1018.24 1018.21 1018.22 1018.26 1018.32 1018.39 1018.46 1018.52 1018.56 1018.60 1018.64
1016.24 1016.44 1016.58 1016.69 1016.78 1016.89 1017.04 1017.23 1017.46 1017.72 1017.97 1018.20 1018.38 1018.51 1018.57 1018.59 1018.58 1018.57 1018.57 1018.59 1018.65 1018.72 1018.81 1018.90 1018.96 1018.98 1018.96 1018.88 1018.77 1018.63 1018.47 1018.33 1018.21 1018.13 1018.10 1018.11 1018.15 1018.21 1018.28 1018.34 1018.39 1018.43 1018.49
1016.16 1016.38 1016.56 1016.73 1016.90 1017.08 1017.30 1017.55 1017.82 1018.11 1018.40 1018.65 1018.85 1018.98 1019.05 1019.05 1019.02 1018.97 1018.92 1018.89 1018.89 1018.93 1018.99 1019.05 1019.11 1019.13 1019.11 1019.03 1018.90 1018.72 1018.53 1018.33 1018.16 1018.03 1017.95 1017.91 1017.92 1017.95 1018.00 1018.06 1018.11 1018.17 1018.25
1016.08 1016.32 1016.56 1016.79 1017.03 1017.28 1017.55 1017.84 1018.15 1018.46 1018.75 1019.01 1019.22 1019.36 1019.43 1019.44 1019.39 1019.31 1019.22 1019.15 1019.10 1019.09 1019.11 1019.16 1019.20 1019.22 1019.20 1019.12 1018.99 1018.80 1018.58 1018.35 1018.13 1017.94 1017.80 1017.71 1017.66 1017.66 1017.68 1017.72 1017.77 1017.84 1017.94
1016.03 1016.30 1016.58 1016.87 1017.17 1017.47 1017.78 1018.10 1018.41 1018.71 1019.00 1019.25 1019.46 1019.62 1019.70 1019.72 1019.68 1019.60 1019.49 1019.39 1019.30 1019.24 1019.23 1019.24 1019.26 1019.27 1019.25 1019.19 1019.06 1018.88 1018.64 1018.39 1018.13 1017.88 1017.68 1017.53 1017.42 1017.36 1017.34 1017.35 1017.40 1017.47 1017.58
1016.03 1016.31 1016.62 1016.96 1017.30 1017.64 1017.96 1018.28 1018.57 1018.85 1019.12 1019.36 1019.57 1019.74 1019.85 1019.91 1019.90 1019.84 1019.74 1019.62 1019.50 1019.41 1019.35 1019.32 1019.31 1019.31 1019.29 1019.23 1019.12 1018.94 1018.71 1018.44 1018.16 1017.87 1017.61 1017.39 1017.21 1017.09 1017.02 1016.99 1017.02 1017.09 1017.21
1016.04 1016.34 1016.67 1017.03 1017.39 1017.74 1018.07 1018.36 1018.62 1018.87 1019.10 1019.32 1019.54 1019.74 1019.90 1020.01 1020.06 1020.04 1019.96 1019.84 1019.71 1019.59 1019.48 1019.41 1019.36 1019.34 1019.31 1019.25 1019.15 1018.99 1018.77 1018.50 1018.19 1017.87 1017.56 1017.27 1017.03 1016.84 1016.71 1016.64 1016.64 1016.70 1016.83
1016.06 1016.35 1016.68 1017.05 1017.42 1017.76 1018.07 1018.33 1018.55 1018.76 1018.96 1019.17 1019.40 1019.63 1019.84 1020.02 1020.14 1020.18 1020.15 1020.05 1019.91 1019.75 1019.61 1019.49 1019.40 1019.34 1019.29 1019.23 1019.13 1018.98 1018.77 1018.50 1018.18 1017.82 1017.47 1017.12 1016.81 1016.56 1016.37 1016.26 1016.23 1016.29 1016.43
1016.02 1016.30 1016.63 1016.99 1017.35 1017.68 1017.96 1018.18 1018.37 1018.54 1018.72 1018.92 1019.16 1019.43 1019.70 1019.95 1020.13 1020.24 1020.25 1020.18 1020.05 1019.88 1019.70 1019.53 1019.40 1019.30 1019.22 1019.14 1019.04 1018.88 1018.67 1018.39 1018.06 1017.67 1017.27 1016.87 1016.51 1016.19 1015.95 1015.80 1015.75 1015.81 1015.97
1015.89 1016.16 1016.48 1016.83 1017.17 1017.48 1017.73 1017.93 1018.09 1018.23 1018.40 1018.60 1018.86 1019.16 1019.47 1019.77 1020.02 1020.18 1020.24 1020.20 1020.08 1019.90 1019.70 1019.50 1019.33 1019.20 1019.08 1018.97 1018.85 1018.68 1018.45 1018.16 1017.79 1017.37 1016.93 1016.48 1016.05 1015.68 1015.40 1015.22 1015.16 1015.22 1015.41
1015.67 1015.92 1016.23 1016.56 1016.88 1017.18 1017.41 1017.59 1017.73 1017.86 1018.02 1018.22 1018.49 1018.80 1019.15 1019.48 1019.77 1019.98 1020.08 1020.07 1019.97 1019.80 1019.59 1019.38 1019.19 1019.03 1018.88 1018.74 1018.59 1018.39 1018.12 1017.79 1017.38 1016.92 1016.41 1015.91 1015.43 1015.02 1014.70 1014.49 1014.43 1014.50 1014.72
1015.35 1015.59 1015.88 1016.20 1016.51 1016.79 1017.02 1017.19 1017.33 1017.46 1017.61 1017.81 1018.07 1018.38 1018.73 1019.07 1019.38 1019.60 1019.73 1019.75 1019.68 1019.54 1019.36 1019.17 1018.98 1018.81 1018.65 1018.48 1018.29 1018.04 1017.72 1017.33 1016.86 1016.33 1015.77 1015.20 1014.67 1014.21 1013.86 1013.64 1013.57 1013.67 1013.92
1014.97 1015.20 1015.47 1015.78 1016.08 1016.36 1016.59 1016.76 1016.91 1017.04 1017.19 1017.37 1017.61 1017.90 1018.22 1018.54 1018.83 1019.06 1019.20 1019.26 1019.23 1019.15 1019.02 1018.87 1018.73 1018.58 1018.42 1018.24 1018.01 1017.71 1017.33 1016.86 1016.31 1015.70 1015.06 1014.43 1013.84 1013.33 1012.95 1012.72 1012.65 1012.77 1013.06
1014.58 1014.80 1015.06 1015.35 1015.64 1015.92 1016.16 1016.34 1016.50 1016.63 1016.77 1016.93 1017.14 1017.38 1017.65 1017.92 1018.18 1018.39 1018.54 1018.62 1018.66 1018.64 1018.60 1018.53 1018.46 1018.36 1018.24 1018.06 1017.80 1017.46 1017.01 1016.46 1015.82 1015.13 1014.40 1013.69 1013.04 1012.49 1012.07 1011.82 1011.76 1011.89 1012.20
1014.22 1014.43 1014.68 1014.96 1015.25 1015.52 1015.76 1015.96 1016.12 1016.25 1016.37 1016.50 1016.66 1016.84 1017.03 1017.24 1017.44 1017.62 1017.77 1017.89 1017.99 1018.06 1018.12 1018.17 1018.19 1018.18 1018.11 1017.96 1017.71 1017.33 1016.82 1016.20 1015.48 1014.69 1013.88 1013.10 1012.39 1011.79 1011.34 1011.06 1010.99 1011.13 1011.46
1013.93 1014.13 1014.37 1014.64 1014.92 1015.19 1015.43 1015.63 1015.79 1015.91 1016.01 1016.10 1016.20 1016.30 1016.41 1016.54 1016.68 1016.81 1016.96 1017.10 1017.26 1017.43 1017.60 1017.77 1017.92 1018.02 1018.03 1017.93 1017.70 1017.31 1016.78 1016.10 1015.32 1014.46 1013.59 1012.75 1011.98 1011.33 1010.85 1010.55 1010.46 1010.58 1010.91
1013.72 1013.92 1014.15 1014.41 1014.68 1014.95 1015.18 1015.37 1015.52 1015.62 1015.69 1015.73 1015.76 1015.79 1015.82 1015.86 1015.92 1016.01 1016.13 1016.30 1016.51 1016.76 1017.04 1017.33 1017.60 1017.81 1017.92 1017.90 1017.72 1017.36 1016.83 1016.15 1015.34 1014.45 1013.55 1012.66 1011.86 1011.18 1010.67 1010.34 1010.22 1010.31 1010.61
1013.59 1013.79 1014.02 1014.27 1014.53 1014.78 1015.00 1015.17 1015.30 1015.38 1015.41 1015.40 1015.37 1015.32 1015.27 1015.22 1015.21 1015.24 1015.33 1015.49 1015.73 1016.04 1016.40 1016.79 1017.17 1017.49 1017.72 1017.79 1017.69 1017.40 1016.92 1016.27 1015.49 1014.62 1013.72 1012.84 1012.04 1011.34 1010.80 1010.45 1010.29 1010.34 1010.60
1013.49 1013.71 1013.94 1014.19 1014.44 1014.67 1014.87 1015.03 1015.13 1015.18 1015.17 1015.11 1015.01 1014.89 1014.76 1014.64 1014.55 1014.52 1014.56 1014.69 1014.92 1015.25 1015.66 1016.12 1016.58 1017.00 1017.32 1017.51 1017.52 1017.33 1016.95 1016.40 1015.70 1014.90 1014.06 1013.23 1012.45 1011.77 1011.23 1010.86 1010.67 1010.67 1010.86
1013.41 1013.65 1013.90 1014.15 1014.39 1014.61 1014.78 1014.91 1014.98 1015.00 1014.95 1014.85 1014.70 1014.52 1014.32 1014.12 1013.95 1013.84 1013.82 1013.89 1014.09 1014.40 1014.81 1015.29 1015.80 1016.29 1016.71 1017.00 1017.13 1017.08 1016.84 1016.43 1015.87 1015.20 1014.48 1013.74 1013.04 1012.41 1011.89 1011.51 1011.28 1011.23 1011.36
1013.31 1013.58 1013.86 1014.12 1014.36 1014.57 1014.72 1014.82 1014.87 1014.84 1014.76 1014.61 1014.42 1014.19 1013.93 1013.66 1013.42 1013.23 1013.12 1013.12 1013.24 1013.49 1013.86 1014.32 1014.84 1015.37 1015.86 1016.25 1016.51 1016.61 1016.55 1016.32 1015.94 1015.45 1014.88 1014.28 1013.69 1013.14 1012.67 1012.31 1012.07 1011.98 1012.04
1013.19 1013.50 1013.81 1014.09 1014.34 1014.54 1014.68 1014.76 1014.77 1014.71 1014.60 1014.42 1014.19 1013.91 1013.60 1013.28 1012.96 1012.69 1012.49 1012.39 1012.42 1012.58 1012.87 1013.28 1013.77 1014.30 1014.83 1015.31 1015.69 1015.94 1016.06 1016.02 1015.85 1015.56 1015.19 1014.76 1014.31 1013.88 1013.48 1013.16 1012.93 1012.82 1012.84
1013.05 1013.40 1013.75 1014.06 1014.32 1014.52 1014.65 1014.71 1014.70 1014.62 1014.47 1014.27 1014.01 1013.70 1013.35 1012.97 1012.60 1012.25 1011.96 1011.76 1011.67 1011.72 1011.91 1012.24 1012.67 1013.18 1013.72 1014.25 1014.72 1015.11 1015.39 1015.55 1015.58 1015.50 1015.33 1015.09 1014.80 1014.50 1014.21 1013.96 1013.76 1013.65 1013.64
1012.91 1013.31 1013.69 1014.04 1014.31 1014.52 1014.65 1014.69 1014.66 1014.56 1014.40 1014.17 1013.89 1013.55 1013.17 1012.76 1012.33 1011.92 1011.55 1011.25 1011.06 1011.00 1011.08 1011.31 1011.66 1012.11 1012.63 1013.17 1013.70 1014.19 1014.60 1014.91 1015.12 1015.23 1015.24 1015.18 1015.06 1014.91 1014.74 1014.57 1014.44 1014.37 1014.36
1012.83 1013.26 1013.67 1014.04 1014.33 1014.55 1014.67 1014.71 1014.67 1014.56 1014.37 1014.13 1013.83 1013.48 1013.08 1012.64 1012.18 1011.72 1011.28 1010.91 1010.64 1010.48 1010.45 1010.57 1010.83 1011.20 1011.67 1012.19 1012.72 1013.25 1013.73 1014.15 1014.48 1014.73 1014.90 1015.00 1015.03 1015.01 1014.97 1014.91 1014.87 1014.85 1014.87
Thickness
5712 5712 5712 5711 5711 5711 5711 5711 5712 5712 5712 5713 5713 5713 5713 5714 5714 5715 5716 5717 5717 5718 5719 5719 5719 5719 5719 5719 5719 5719 5718 5718 5718 5718 5719 5719 5719 5720 5721 5722 5722 5722 5722
5708 5708 5707 5707 5707 5707 5707 5707 5707 5707 5707 5707 5707 5708 5708 5708 5708 5709 5710 5711 5712 5712 5713 5714 5715 5715 5715 5714 5714 5714 5713 5713 5713 5713 5714 5714 5714 5715 5715 5716 5717 5717 5717
5704 5703 5702 5702 5702 5702 5702 5702 5702 5702 5702 5702 5701 5702 5702 5702 5703 5703 5704 5705 5705 5707 5708 5708 5709 5709 5710 5710 5709 5709 5709 5708 5708 5708 5709 5709 5710 5710 5710 5711 5711 5712 5712
5699 5698 5698 5698 5698 5698 5697 5697 5696 5695 5695 5694 5694 5695 5696 5696 5696 5697 5698 5699 5699 5700 5702 5703 5703 5704 5704 5704 5704 5704 5704 5703 5703 5703 5703 5704 5704 5705 5705 5706 5707 5707 5707
5694 5694 5693 5693 5693 5693 5692 5692 5690 5689 5688 5688 5689 5689 5689 5690 5691 5691 5692 5692 5693 5694 5695 5696 5697 5698 5699 5699 5699 5699 5699 5698 5699 5699 5699 5699 5699 5700 5700 5701 5702 5702 5702
5689 5688 5688 5688 5688 5687 5686 5685 5684 5684 5683 5683 5684 5682 5682 5684 5684 5685 5686 5686 5686 5687 5688 5689 5690 5691 5692 5693 5693 5694 5694 5694 5694 5694 5694 5694 5694 5695 5696 5697 5697 5697 5697
5683 5683 5682 5682 5682 5681 5680 5680 5679 5678 5677 5677 5676 5673 5674 5676 5677 5678 5679 5679 5680 5681 5682 5683 5684 5685 5686 5686 5687 5688 5688 5689 5689 5689 5690 5690 5690 5690 5691 5692 5692 5693 5693
5678 5677 5676 5676 5675 5675 5674 5674 5673 5671 5671 5672 5669 5665 5662 5664 5668 5672 5672 5673 5673 5674 5675 5676 5677 5678 5679 5680 5680 5682 5683 5683 5684 5685 5685 5685 5686 5686 5687 5688 5689 5689 5689
5672 5671 5671 5670 5670 5669 5668 5668 5668 5667 5664 5665 5665 5662 5657 5654 5656 5661 5664 5666 5666 5667 5669 5670 5671 5672 5672 5673 5674 5675 5677 5678 5679 5680 5680 5681 5682 5682 5684 5685 5686 5686 5685
5666 5665 5665 5665 5665 5664 5663 5663 5663 5663 5661 5658 5659 5659 5658 5655 5651 5650 5654 5658 5660 5661 5662 5663 5664 5665 5666 5667 5668 5670 5671 5672 5674 5675 5676 5677 5677 5678 5680 5681 5682 5681 5681
5659 5660 5660 5660 5659 5659 5658 5658 5657 5657 5657 5655 5654 5653 5652 5650 5650 5647 5645 5648 5651 5654 5655 5657 5658 5658 5659 5661 5662 5664 5666 5667 5668 5670 5671 5672 5673 5674 5676 5676 5677 5676 5676
5653 5654 5654 5654 5653 5653 5653 5652 5652 5652 5652 5651 5650 5649 5648 5646 5644 5643 5640 5640 5642 5645 5648 5650 5651 5652 5653 5655 5656 5658 5660 5662 5663 5665 5666 5667 5668 5669 5670 5671 5671 5671 5670
5647 5647 5648 5648 5648 5648 5648 5647 5646 5646 5646 5646 5645 5644 5644 5644 5643 5641 5638 5635 5636 5638 5641 5643 5645 5646 5647 5649 5651 5652 5654 5656 5658 5659 5661 5662 5662 5663 5663 5664 5665 5665 5664
5644 5644 5644 5643 5643 5643 5642 5641 5640 5640 5641 5640 5641 5640 5639 5639 5639 5638 5635 5632 5629 5629 5632 5634 5637 5640 5641 5643 5645 5647 5649 5650 5652 5653 5654 5655 5656 5656 5657 5657 5657 5657 5657
5641 5640 5639 5638 5638 5637 5636 5635 5634 5634 5634 5634 5634 5634 5634 5634 5634 5633 5632 5631 5627 5623 5623 5627 5629 5633 5635 5637 5639 5642 5643 5645 5646 5646 5647 5648 5649 5649 5650 5650 5650 5650 5649
5636 5635 5633 5633 5633 5632 5631 5629 5628 5628 5628 5628 5628 5628 5627 5628 5628 5628 5627 5626 5625 5622 5619 5620 5623 5626 5628 5631 5633 5635 5637 5638 5639 5640 5641 5641 5642 5643 5643 5642 5642 5642 5642
5632 5631 5629 5628 5627 5626 5625 5623 5622 5621 5621 5621 5621 5621 5621 5621 5621 5621 5620 5620 5618 5617 5614 5614 5617 5619 5622 5624 5626 5628 5630 5631 5632 5633 5634 5634 5635 5635 5635 5635 5635 5635 5635
5627 5626 5624 5623 5622 5621 5619 5617 5616 5615 5615 5614 5614 5615 5614 5615 5614 5614 5613 5612 5612 5611 5610 5608 5609 5611 5614 5616 5619 5620 5622 5623 5624 5626 5627 5627 5628 5628 5628 5628 5628 5628 5628
5621 5620 5618 5617 5616 5615 5613 5612 5611 5610 5609 5608 5608 5608 5608 5608 5607 5607 5607 5606 5605 5606 5604 5603 5603 5604 5606 5608 5610 5612 5614 5615 5617 5618 5619 5619 5620 5620 5620 5620 5620 5620 5620
5616 5614 5612 5611 5610 5609 5608 5607 5606 5604 5603 5603 5603 5603 5602 5602 5601 5601 5601 5600 5599 5598 5596 5596 5595 5596 5597 5599 5600 5601 5603 5605 5607 5609 5610 5611 5611 5612 5612 5613 5613 5613 5613
5611 5608 5606 5605 5604 5603 5602 5601 5600 5599 5597 5597 5596 5597 5597 5598 5597 5596 5596 5594 5593 5591 5589 5588 5587 5587 5588 5589 5590 5592 5593 5595 5597 5600 5601 5602 5603 5604 5604 5605 5605 5606 5606
5604 5602 5600 5598 5597 5598 5597 5596 5595 5593 5591 5590 5589 5590 5591 5591 5591 5591 5591 5590 5588 5586 5583 5581 5580 5579 5581 5582 5582 5584 5583 5584 5586 5590 5591 5592 5594 5594 5596 5597 5598 5598 5598
5597 5595 5593 5592 5591 5591 5592 5591 5590 5587 5585 5583 5582 5582 5583 5584 5583 5583 5583 5582 5581 5581 5580 5577 5575 5574 5575 5576 5576 5575 5575 5575 5577 5581 5582 5583 5584 5585 5587 5588 5590 5590 5590
5591 5589 5587 5586 5585 5585 5586 5585 5583 5580 5578 5576 5575 5575 5574 5574 5576 5575 5574 5572 5572 5572 5572 5571 5570 5570 5570 5570 5570 5570 5569 5569 5569 5572 5574 5573 5575 5576 5579 5580 5581 5582 5582
5584 5582 5581 5579 5577 5578 5579 5578 5576 5572 5570 5569 5568 5567 5567 5567 5568 5567 5565 5563 5562 5562 5563 5563 5563 5563 5563 5563 5562 5560 5559 5559 5559 5562 5564 5564 5566 5567 5570 5571 5573 5573 5574
5578 5576 5574 5572 5571 5570 5572 5571 5569 5565 5562 5561 5560 5559 5560 5560 5560 5559 5556 5554 5552 5552 5553 5553 5553 5553 5553 5553 5552 5552 5552 5551 5551 5552 5555 5556 5557 5558 5559 5562 5564 5565 5566